Eugene, OR

2:17 AM PDT on August 24, 2017 (GMT -0700)
Mahlon Sweet

Weather History for KEUG - May, 2013

Change the Weather History Date:

Thursday, May 23, 2013

  Actual Average Record
Temperature  
Mean Temperature 51 °F 56 °F  
Max Temperature 58 °F 68 °F 91 °F (1947)
Min Temperature 43 °F 45 °F 34 °F (1978)
Degree Days  
Heating Degree Days 14 9  
Month to date heating degree days 167 241  
Since 1 July heating degree days 4187 4583  
Cooling Degree Days 0 0  
Month to date cooling degree days 5 0  
Year to date cooling degree days 5 0  
Growing Degree Days 1 (Base 50)    
Moisture  
Dew Point 44 °F    
Average Humidity 77    
Maximum Humidity 92    
Minimum Humidity 62    
Precipitation  
Precipitation 0.06 in 0.09 in 1.17 in (1989)
Month to date precipitation 1.06 2.04  
Year to date precipitation 7.60 22.66  
Snow  
Snow 0.00 in - - ()
Month to date snowfall 0.0  
Since 1 July snowfall 0.0  
Snow Depth 0.00 in    
Sea Level Pressure  
Sea Level Pressure 30.05 in    
Wind  
Wind Speed 9 mph (SSW)    
Max Wind Speed 20 mph    
Max Gust Speed 24 mph    
Visibility 10 miles    
Events Rain    
T = Trace of Precipitation, MM = Missing Value Source: NWS Daily Summary

Daily Weather History Graph

Daily Weather History Graph

Search for Another Location

Airport or City:

Trip Planner

Search our weather history database for the weather conditions in past years. The results will help you decide how hot, cold, wet, or windy it might be!

Date:

Astronomy

May. 23, 2013 Rise Set
Actual Time 5:38 AM PDT 8:41 PM PDT
Civil Twilight 5:03 AM PDT 9:16 PM PDT
Nautical Twilight 4:19 AM PDT 10:00 PM PDT
Astronomical Twilight 3:27 AM PDT 10:53 PM PDT
Moon 7:18 PM PDT (5/23) 4:31 AM PDT (5/23)
Length of Visible Light 16h 12m
Length of Day
15h 03m
Waxing Gibbous, 97% of the Moon is Illuminated
May 23
Waxing Gibbous
May 24
Full
May 31
Last Quarter
Jun 8
New
Jun 16
First Quarter

Hourly Weather History & Observations

Time (PDT) Temp. Windchill Dew Point Humidity Pressure Visibility Wind Dir Wind Speed Gust Speed Precip Events Conditions
12:54 AM 46.0 °F 43.1 °F 42.1 °F 86% 30.05 in 10.0 mi South 5.8 mph - N/A   Overcast
1:54 AM 46.0 °F 41.4 °F 42.1 °F 86% 30.05 in 10.0 mi South 9.2 mph - N/A   Overcast
2:54 AM 45.0 °F 41.2 °F 41.0 °F 86% 30.04 in 10.0 mi South 6.9 mph - N/A   Mostly Cloudy
3:54 AM 44.1 °F 40.1 °F 41.0 °F 89% 30.04 in 10.0 mi South 6.9 mph - N/A   Mostly Cloudy
4:54 AM 45.0 °F 41.8 °F 41.0 °F 86% 30.04 in 10.0 mi South 5.8 mph - N/A   Mostly Cloudy
5:54 AM 45.0 °F 41.8 °F 42.1 °F 90% 30.04 in 10.0 mi SSW 5.8 mph - N/A   Overcast
6:54 AM 46.0 °F 43.1 °F 42.1 °F 86% 30.05 in 10.0 mi South 5.8 mph - N/A   Overcast
7:54 AM 46.9 °F - 42.1 °F 83% 30.06 in 10.0 mi SSW 8.1 mph - N/A   Mostly Cloudy
8:54 AM 50.0 °F - 43.0 °F 77% 30.06 in 10.0 mi South 10.4 mph - N/A   Mostly Cloudy
9:54 AM 53.1 °F - 43.0 °F 69% 30.06 in 10.0 mi SSW 6.9 mph - N/A   Overcast
10:54 AM 52.0 °F - 42.1 °F 69% 30.05 in 10.0 mi SSW 9.2 mph - N/A   Overcast
11:54 AM 52.0 °F - 45.0 °F 77% 30.06 in 10.0 mi WNW 4.6 mph - 0.00 in   Overcast
12:54 PM 57.0 °F - 45.0 °F 64% 30.06 in 10.0 mi South 12.7 mph - N/A   Mostly Cloudy
1:54 PM 51.1 °F - 46.0 °F 83% 30.06 in 9.0 mi SW 8.1 mph - 0.01 in Rain Light Rain
2:54 PM 55.0 °F - 48.0 °F 77% 30.06 in 10.0 mi SW 9.2 mph - 0.01 in   Overcast
3:54 PM 55.0 °F - 48.0 °F 77% 30.06 in 10.0 mi SW 12.7 mph - 0.03 in   Mostly Cloudy
4:54 PM 54.0 °F - 46.9 °F 77% 30.05 in 10.0 mi SSW 10.4 mph - 0.01 in   Overcast
5:54 PM 53.1 °F - 48.0 °F 83% 30.04 in 10.0 mi South 11.5 mph - N/A   Overcast
6:54 PM 52.0 °F - 46.9 °F 83% 30.04 in 10.0 mi SW 13.8 mph 18.4 mph 0.00 in   Overcast
7:54 PM 51.1 °F - 46.0 °F 83% 30.04 in 10.0 mi SSW 4.6 mph - N/A   Overcast
8:54 PM 50.0 °F - 46.0 °F 86% 30.04 in 10.0 mi SSW 8.1 mph - 0.00 in   Overcast
9:54 PM 50.0 °F - 46.0 °F 86% 30.06 in 10.0 mi SSW 6.9 mph - N/A   Mostly Cloudy
10:54 PM 48.9 °F - 46.9 °F 93% 30.06 in 10.0 mi South 5.8 mph - 0.02 in Rain Light Rain
11:54 PM 48.9 °F - 46.0 °F 90% 30.04 in 10.0 mi South 8.1 mph - 0.01 in   Overcast